This is the latest recevied weather packets stored in our database for station/object W4SNA-4. If no packets are shown the sender has not sent any weather packets the latest 10 day(s).
| Time | Temp. | Humidity | Pressure | Rain* | Wind** | Luminosity | Snow |
|---|---|---|---|---|---|---|---|
| 1777648763 | 15.56° C | 57% | 1010.4 hPa | 0 mm | - | - | - |
| 1777648462 | 15.56° C | 56% | 1010.4 hPa | 0 mm | - | - | - |
| 1777648163 | 15.56° C | 57% | 1010 hPa | 0 mm | - | - | - |
| 1777647863 | 15.56° C | 55% | 1010 hPa | 0 mm | - | - | - |
| 1777647562 | 15° C | 58% | 1010 hPa | 0 mm | - | - | - |
| 1777647263 | 15° C | 60% | 1010.4 hPa | 0 mm | - | - | - |
| 1777646963 | 15° C | 59% | 1010.4 hPa | 0 mm | - | - | - |
| 1777646662 | 15° C | 60% | 1010.4 hPa | 0 mm | - | - | - |
| 1777646363 | 15° C | 61% | 1010.4 hPa | 0 mm | - | - | - |
| 1777646063 | 14.44° C | 60% | 1010.4 hPa | 0 mm | - | - | - |
| 1777645763 | 14.44° C | 62% | 1010.4 hPa | 0 mm | - | - | - |
| 1777645463 | 13.89° C | 61% | 1010.3 hPa | 0 mm | - | - | - |
| 1777645163 | 13.89° C | 64% | 1010.3 hPa | 0 mm | - | - | - |
| 1777644863 | 13.33° C | 63% | 1010.3 hPa | 0 mm | - | - | - |
| 1777644563 | 12.78° C | 66% | 1010.1 hPa | 0 mm | - | - | - |
| 1777644262 | 12.78° C | 68% | 1010.1 hPa | 0 mm | - | - | - |
| 1777643963 | 12.22° C | 67% | 1010.1 hPa | 0 mm | - | - | - |
| 1777643663 | 12.22° C | 67% | 1009.9 hPa | 0 mm | - | - | - |
| 1777643362 | 11.67° C | 69% | 1009.9 hPa | 0 mm | - | - | - |
| 1777643063 | 11.67° C | 70% | 1009.9 hPa | 0 mm | - | - | - |
| 1777642763 | 11.67° C | 71% | 1010 hPa | 0 mm | - | - | - |
| 1777642463 | 11.11° C | 71% | 1010 hPa | 0 mm | - | - | - |
| 1777642163 | 11.11° C | 69% | 1010 hPa | 0 mm | - | - | - |
| 1777641862 | 11.11° C | 69% | 1010.3 hPa | 0 mm | - | - | - |
| 1777641563 | 11.11° C | 71% | 1010.3 hPa | 0 mm | - | - | - |
* Rain latest hour (hover to see other rain measurements)
** Current wind speed in m/s (hover to see current wind gust speed)